Regional Weather Roundup
Issued by NWS

Home | Current Version | Previous Version | Graphics & Text | Print | Product List | Glossary On
Versions: 1 2 3 4 5 6 7 8 9 10 11 12 13 14 15 16 17 18 19 20 21 22 23 24 25 26 27 28 29 30 31 32 33 34 35 36 37 38 39 40 41 42 43 44 45 46 47 48 49 50
000
ASUS45 KPSR 271800
RWRAZ

PRELIMINARY ARIZONA REGIONAL HOURLY WEATHER ROUNDUP
NATIONAL WEATHER SERVICE PHOENIX AZ
1100 AM MST WED AUG 27 2014

NOTE: FAIR INDICATES FEW OR NO CLOUDS BELOW 12,000 FEET WITH NO
SIGNIFICANT WEATHER AND/OR OBSTRUCTIONS TO VISIBILITY.

AZZ001>003-036-271900-
NORTHWEST ARIZONA

CITY           SKY/WX    TMP DP  RH WIND       PRES   REMARKS
KINGMAN        SUNNY     84  57  39 VRB6      30.17S
6HR MIN TEMP:  67; 6HR MAX TEMP:  84;

$$

AZZ004>008-015-016-018-271900-
NORTH CENTRAL ARIZONA

CITY           SKY/WX    TMP DP  RH WIND       PRES   REMARKS
GRAND CANYON   PTSUNNY   68  50  52 W7G14     30.38
WILLIAMS       MOSUNNY   68  55  64 W9        30.45S
PRESCOTT       MOSUNNY   68  58  70 NE3       30.29F
6HR MIN TEMP:  57; 6HR MAX TEMP:  73;

FLAGSTAFF      MOSUNNY   68  48  48 VRB5      30.41F
6HR MIN TEMP:  51; 6HR MAX TEMP:  68;

PAYSON         SUNNY     77  57  50 SW7       30.32F
PAGE           MOSUNNY   70  50  49 N7        30.27F
6HR MIN TEMP:  59; 6HR MAX TEMP:  71;

$$

AZZ009>014-017-271900-
NORTHEAST ARIZONA

CITY           SKY/WX    TMP DP  RH WIND       PRES   REMARKS
WINSLOW        NOT AVBL
SAINT JOHNS    PTSUNNY   68  56  65 CALM      30.36F
6HR MIN TEMP:  52; 6HR MAX TEMP:  68; 6HR PCP:  0.01;

$$

AZZ023-271900-
GREATER PHOENIX AREA

CITY           SKY/WX    TMP DP  RH WIND       PRES   REMARKS
PHOENIX        MOSUNNY   93  61  34 VRB3      30.02F
6HR MIN TEMP:  83; 6HR MAX TEMP:  94;

GLENDALE       MOSUNNY   91  63  38 VRB3      30.04F
LUKE AFB       NOT AVBL
6HR MIN TEMP:  81; 6HR MAX TEMP:  93;

DEER VALLEY    SUNNY     90  61  37 SE5       30.05S
6HR MIN TEMP:  80; 6HR MAX TEMP:  92;

SCOTTSDALE     SUNNY     90  61  37 VRB3      30.06F
6HR MIN TEMP:  81; 6HR MAX TEMP:  91;

MESA-GATEWAY   MOSUNNY   90  61  37 VRB5      30.07F
CHANDLER       MOSUNNY   91  64  40 NE3       30.04F
$$

AZZ027-028-271900-
SOUTHWEST MARICOPA COUNTY AND PINAL COUNTY

CITY           SKY/WX    TMP DP  RH WIND       PRES   REMARKS
CASA GRANDE    SUNNY     91  64  40 CALM      30.06F
6HR MIN TEMP:  75; 6HR MAX TEMP:  91;

GILA BEND      CLEAR     95  59  30 VRB1      30.03S
$$

AZZ503-504-507>509-271900-
SOUTHEAST ARIZONA

CITY           SKY/WX    TMP DP  RH WIND       PRES   REMARKS
TUCSON         SUNNY     88  64  44 NE6       30.14F
6HR MIN TEMP:  73; 6HR MAX TEMP:  88;

DAVIS-MONTHAN  SUNNY     86  64  47 N2        30.12F
6HR MIN TEMP:  71; 6HR MAX TEMP:  86;

RYAN FIELD       N/A     84  66  54 W3        30.13F
NOGALES          N/A    N/A N/A N/A MISG      30.20S
SIERRA VISTA   PTSUNNY   81  63  54 N7        30.26F
SAFFORD        SUNNY     83  62  49 W6        30.16F
6HR MIN TEMP:  66; 6HR MAX TEMP:  83;

$$

AZZ020-021-025-026-031-271900-
SOUTHWEST ARIZONA

CITY           SKY/WX    TMP DP  RH WIND       PRES   REMARKS
YUMA           SUNNY     98  47  17 NW8       29.96S
6HR MIN TEMP:  83; 6HR MAX TEMP:  98;

$$

CAZ031-033-041-043-047-048-061-271900-
SOUTHERN CALIFORNIA

CITY           SKY/WX    TMP DP  RH WIND       PRES   REMARKS
DOWNTOWN L.A.  SUNNY     87  53  31 CALM      30.02S
6HR MIN TEMP:  66; 6HR MAX TEMP:  88;

L.A. AIRPORT   SUNNY     82  62  50 W9        30.04S
6HR MIN TEMP:  67; 6HR MAX TEMP:  83;

SAN DIEGO      SUNNY     83  61  47 NW8       30.04S
6HR MIN TEMP:  70; 6HR MAX TEMP:  83;

BURBANK        SUNNY     86  45  23 CALM      30.05S
6HR MIN TEMP:  66; 6HR MAX TEMP:  86;

ONTARIO        SUNNY     86  47  25 CALM      30.06S
6HR MIN TEMP:  68; 6HR MAX TEMP:  86;

RIVERSIDE      SUNNY     87  47  24 CALM      30.05F
6HR MIN TEMP:  67; 6HR MAX TEMP:  88;

PALM SPRINGS   SUNNY     97  49  19 VRB3      29.98S
6HR MIN TEMP:  78; 6HR MAX TEMP:  97;

EL CENTRO NAS  MOSUNNY  100  42  13 VRB6      29.94S
6HR MIN TEMP:  78; 6HR MAX TEMP: 100;

IMPERIAL       SUNNY     97  50  20 W5        29.94S
6HR MIN TEMP:  79; 6HR MAX TEMP:  97;

BLYTHE         SUNNY     97  48  18 NE6       29.97S
6HR MIN TEMP:  79; 6HR MAX TEMP:  97;

$$

NVZ020-UTZ003-271900-
SOUTHERN NEVADA-UTAH

CITY           SKY/WX    TMP DP  RH WIND       PRES   REMARKS
LAS VEGAS      NOT AVBL
SALT LAKE CITY PTSUNNY   68  52  56 CALM      30.23F
6HR MIN TEMP:  60; 6HR MAX TEMP:  70;

$$

NMZ009-TXZ055-271900-
NEW MEXICO-WEST TEXAS

CITY           SKY/WX    TMP DP  RH WIND       PRES   REMARKS
ALBUQUERQUE    MOSUNNY   72  54  53 W5        30.31F
6HR MIN TEMP:  60; 6HR MAX TEMP:  72;

EL PASO        MOSUNNY   80  63  55 N7        30.20F
6HR MIN TEMP:  69; 6HR MAX TEMP:  81;

$$


........................KEY........................
SKY/WX - SKY CONDITION/WEATHER
TMP    - TEMPERATURE IN FAHRENHEIT
DP     - DEW POINT IN FAHRENHEIT
RH     - RELATIVE HUMIDITY IN PERCENT
WIND   - DIRECTION AND SPEED IN MILES PER HOUR (MPH)
VRB    - VARIABLE WIND DIRECTION
PRES   - MEAN SEA LEVEL PRESSURE IN INCHES OF MERCURY
         F - FALLING PRESSURE   R - RISING PRESSURE
         S - STEADY PRESSURE
VSB    - VISIBILITY IN MILES
HX     - HEAT INDEX IN FAHRENHEIT
WCI    - WIND CHILL INDEX IN FAHRENHEIT
TC     - TEMPERATURE IN CELSIUS WHICH IS ALSO KNOWN AS
         TEMPERATURE IN CENTIGRADE
AFB    - AIR FORCE BASE
         LUKE AFB IS LUKE AIR FORCE BASE
         DAVIS-MONTHAN IS DAVIS-MONTHAN AIR FORCE BASE
NAS    - NAVAL AIR STATION
         EL CENTRO NAS IS EL CENTRO NAVAL AIR STATION
N/A    - NOT AVAILABLE



USA.gov is the U.S. government's official web portal to all federal, state and local government web resources and services.